East Milton, MA

7:58 PM EDT on June 25, 2017 (GMT -0400)
East Milton

Weather History for KMQE - August, 2013

Change the Weather History Date:

Monday, August 26, 2013

  Actual Average (KOWD) Record (KOWD)
Temperature  
Mean Temperature 72 °F -  
Max Temperature 80 °F 77 °F 90 °F (2016)
Min Temperature 64 °F 54 °F 41 °F (2004)
Cooling Degree Days 6    
Growing Degree Days 22 (Base 50)    
Moisture  
Dew Point 60 °F    
Average Humidity 71    
Maximum Humidity 84    
Minimum Humidity 52    
Precipitation  
Precipitation 0.00 in - - ()
Sea Level Pressure  
Sea Level Pressure 30.05 in    
Wind  
Wind Speed 11 mph (SW)    
Max Wind Speed 18 mph    
Max Gust Speed 25 mph    
Averages and records for this station are not official NWS values.
T = Trace of Precipitation, MM = Missing Value Source: NWS Daily Summary

Daily Weather History Graph

Daily Weather History Graph

Search for Another Location

Airport or City:

Trip Planner

Search our weather history database for the weather conditions in past years. The results will help you decide how hot, cold, wet, or windy it might be!

Date:

Astronomy

Aug. 26, 2013 Rise Set
Actual Time 6:03 AM EDT 7:27 PM EDT
Civil Twilight 5:34 AM EDT 7:56 PM EDT
Nautical Twilight 4:59 AM EDT 8:32 PM EDT
Astronomical Twilight 4:21 AM EDT 9:09 PM EDT
Moon 10:28 PM EDT (8/26) 12:09 PM EDT (8/26)
Length of Visible Light 14h 22m
Length of Day
13h 24m
Waning Gibbous, 67% of the Moon is Illuminated
Aug 26
Waning Gibbous
Aug 28
Last Quarter
Sep 5
New
Sep 12
First Quarter
Sep 19
Full

Hourly Weather History & Observations

Time (EDT) Temp. Dew Point Humidity Pressure Visibility Wind Dir Wind Speed Gust Speed Precip Events Conditions
12:54 AM 64.0 °F 54.0 °F 70% 30.23 in - SW 11.5 mph - N/A   Unknown
1:54 AM 64.0 °F 55.9 °F 75% 30.21 in - SW 11.5 mph - N/A   Unknown
2:54 AM 64.0 °F 55.9 °F 75% 30.19 in - SW 13.8 mph - N/A   Unknown
3:54 AM 64.0 °F 55.9 °F 75% 30.17 in - SW 9.2 mph - N/A   Unknown
4:54 AM 64.0 °F 55.9 °F 75% 30.17 in - SW 10.4 mph - N/A   Unknown
5:54 AM 64.0 °F 55.9 °F 75% 30.15 in - SW 12.7 mph - N/A   Unknown
6:54 AM 64.9 °F 55.9 °F 73% 30.14 in - SW 9.2 mph - N/A   Unknown
7:54 AM 64.9 °F 57.0 °F 75% 30.14 in - SW 9.2 mph - N/A   Unknown
8:54 AM 64.9 °F 57.9 °F 78% 30.12 in - SW 11.5 mph 20.7 mph N/A   Unknown
9:54 AM 66.9 °F 57.9 °F 73% 30.09 in - SW 13.8 mph - N/A   Unknown
10:54 AM 71.1 °F 59.0 °F 66% 30.08 in - SSW 12.7 mph 20.7 mph N/A   Unknown
11:54 AM 75.9 °F 59.0 °F 56% 30.05 in - WSW 11.5 mph 24.2 mph N/A   Unknown
12:54 PM 79.0 °F 60.1 °F 52% 30.03 in - SW 18.4 mph 25.3 mph N/A   Unknown
1:54 PM 75.9 °F 60.1 °F 58% 30.01 in - WSW 13.8 mph 23.0 mph N/A   Unknown
2:54 PM 75.0 °F 61.0 °F 62% 29.99 in - WSW 12.7 mph 20.7 mph N/A   Unknown
3:54 PM 75.0 °F 62.1 °F 64% 29.97 in - WSW 10.4 mph 18.4 mph N/A   Unknown
4:54 PM 75.9 °F 64.0 °F 67% 29.96 in - West 6.9 mph - N/A   Unknown
5:54 PM 75.0 °F 63.0 °F 66% 29.95 in - WSW 9.2 mph - N/A   Unknown
6:54 PM 73.9 °F 64.0 °F 71% 29.94 in - SW 11.5 mph - N/A   Unknown
7:54 PM 73.0 °F 64.0 °F 73% 29.94 in - WSW 10.4 mph - N/A   Unknown
8:54 PM 71.1 °F 64.0 °F 78% 29.95 in - WSW 9.2 mph - N/A   Unknown
9:54 PM 71.1 °F 64.0 °F 78% 29.94 in - WSW 11.5 mph 17.3 mph N/A   Unknown
10:54 PM 70.0 °F 64.0 °F 81% 29.93 in - WSW 11.5 mph - N/A   Unknown
11:54 PM 69.1 °F 64.0 °F 84% 29.91 in - SW 10.4 mph - N/A   Unknown